Weather History for Pinedale, WY

Change the Weather History Date:

Thursday, September 19, 2013

  Actual Average (KBPI) Record (KBPI)
Temperature  
Mean Temperature 42 °F 48 °F  
Max Temperature 57 °F 67 °F 83 °F (2010)
Min Temperature 28 °F 30 °F 17 °F (1978)
Degree Days  
Heating Degree Days 22 17  
Month to date heating degree days 251  
Since 1 July heating degree days 544  
Cooling Degree Days 0 0  
Month to date cooling degree days 0  
Year to date cooling degree days 35  
Moisture  
Dew Point 29 °F    
Average Humidity 67    
Maximum Humidity 100    
Minimum Humidity 26    
Precipitation  
Precipitation 0.00 in 0.02 in 0.90 in (1978)
Month to date precipitation 0.48  
Year to date precipitation 5.14  
Sea Level Pressure  
Sea Level Pressure 30.23 in    
Wind  
Wind Speed 6 mph (WNW)    
Max Wind Speed 10 mph    
Max Gust Speed 16 mph    
Visibility 10 miles    
Events      
T = Trace of Precipitation, MM = Missing Value Source: NWS Daily Summary

Daily Weather History Graph

Daily Weather History Graph

Search for Another Location

Airport:

Trip Planner

Search our weather history database for the weather conditions in past years. The results will help you decide how hot, cold, wet, or windy it might be!

Date:

Astronomy

Sep. 19, 2013 Rise Set
Actual Time 7:03 AM MDT 7:21 PM MDT
Civil Twilight 6:35 AM MDT 7:49 PM MDT
Nautical Twilight 6:02 AM MDT 8:22 PM MDT
Astronomical Twilight 5:27 AM MDT 8:56 PM MDT
Moon 7:19 PM MDT (9/19) 7:17 AM MDT (9/19)
Length of Visible Light 13h 14m
Length of Day
12h 17m
Full, 100% of the Moon is Illuminated
Sep 19
Full
Sep 26
Last Quarter
Oct 4
New
Oct 11
First Quarter
Oct 18
Full

Hourly Weather History & Observations

Time (MDT) Temp. Windchill Dew Point Humidity Pressure Visibility Wind Dir Wind Speed Gust Speed Precip Events Conditions
12:15 AM 33.8 °F 26.4 °F 30.2 °F 87% 30.17 in 10.0 mi West 9.2 mph - N/A   Clear
12:35 AM 32.0 °F 24.8 °F 30.2 °F 93% 30.17 in 10.0 mi West 8.1 mph - N/A   Clear
12:55 AM 32.0 °F 24.8 °F 28.4 °F 87% 30.17 in 10.0 mi WNW 8.1 mph - N/A   Clear
1:15 AM 32.0 °F 25.6 °F 30.2 °F 93% 30.18 in 10.0 mi NW 6.9 mph - N/A   Clear
1:35 AM 32.0 °F 27.5 °F 30.2 °F 93% 30.18 in 10.0 mi NW 4.6 mph - N/A   Clear
1:55 AM 32.0 °F 26.4 °F 30.2 °F 93% 30.19 in 10.0 mi WNW 5.8 mph - N/A   Clear
2:15 AM 32.0 °F 25.6 °F 30.2 °F 93% 30.19 in 10.0 mi West 6.9 mph - N/A   Clear
2:35 AM 30.2 °F 23.4 °F 28.4 °F 93% 30.19 in 10.0 mi West 6.9 mph - N/A   Clear
2:55 AM 32.0 °F 25.6 °F 30.2 °F 93% 30.19 in 10.0 mi NNW 6.9 mph - N/A   Clear
3:15 AM 32.0 °F 25.6 °F 28.4 °F 87% 30.19 in 10.0 mi NW 6.9 mph - N/A   Clear
3:35 AM 32.0 °F 24.8 °F 30.2 °F 93% 30.19 in 10.0 mi NW 8.1 mph - N/A   Clear
3:55 AM 32.0 °F 24.8 °F 28.4 °F 87% 30.19 in 10.0 mi NW 8.1 mph - N/A   Clear
4:15 AM 30.2 °F 23.4 °F 28.4 °F 93% 30.20 in 10.0 mi NW 6.9 mph - N/A   Clear
4:35 AM 28.4 °F - 28.4 °F 100% 30.20 in 10.0 mi Calm Calm - N/A   Clear
4:55 AM 30.2 °F 26.7 °F 28.4 °F 93% 30.21 in 10.0 mi NNE 3.5 mph - N/A   Clear
5:15 AM 30.2 °F 25.4 °F 28.4 °F 93% 30.21 in 10.0 mi North 4.6 mph - N/A   Clear
5:35 AM 30.2 °F 24.3 °F 28.4 °F 93% 30.21 in 10.0 mi NNW 5.8 mph - N/A   Clear
5:55 AM 28.4 °F 23.3 °F 28.4 °F 100% 30.21 in 10.0 mi WNW 4.6 mph - N/A   Clear
6:15 AM 28.4 °F 21.2 °F 28.4 °F 100% 30.22 in 10.0 mi West 6.9 mph - N/A   Clear
6:35 AM 28.4 °F 24.6 °F 28.4 °F 100% 30.22 in 10.0 mi WNW 3.5 mph - N/A   Clear
6:55 AM 30.2 °F - 28.4 °F 93% 30.22 in 10.0 mi Calm Calm - N/A   Clear
7:15 AM 28.4 °F - 28.4 °F 100% 30.22 in 10.0 mi Calm Calm - N/A   Clear
7:35 AM 30.2 °F - 28.4 °F 93% 30.23 in 10.0 mi Calm Calm - N/A   Clear
7:55 AM 32.0 °F 26.4 °F 30.2 °F 93% 30.23 in 10.0 mi NW 5.8 mph - N/A   Clear
8:15 AM 33.8 °F - 30.2 °F 87% 30.23 in 10.0 mi Calm Calm - N/A   Clear
8:35 AM 33.8 °F 28.6 °F 32.0 °F 93% 30.24 in 10.0 mi North 5.8 mph - N/A   Clear
8:55 AM 35.6 °F 30.7 °F 32.0 °F 87% 30.25 in 10.0 mi NNW 5.8 mph - N/A   Clear
9:15 AM 41.0 °F 34.7 °F 32.0 °F 70% 30.25 in 10.0 mi WNW 10.4 mph - N/A   Clear
9:35 AM 42.8 °F 37.0 °F 32.0 °F 66% 30.26 in 10.0 mi WNW 10.4 mph - N/A   Clear
9:55 AM 44.6 °F 40.2 °F 32.0 °F 61% 30.26 in 10.0 mi NW 8.1 mph - N/A   Clear
10:15 AM 44.6 °F 39.2 °F 30.2 °F 57% 30.26 in 10.0 mi NW 10.4 mph - N/A   Clear
10:35 AM 46.4 °F 41.9 °F 32.0 °F 57% 30.26 in 10.0 mi WNW 9.2 mph - N/A   Clear
10:55 AM 46.4 °F 41.9 °F 30.2 °F 53% 30.26 in 10.0 mi WNW 9.2 mph - N/A   Clear
11:15 AM 48.2 °F - 30.2 °F 50% 30.25 in 10.0 mi WNW 6.9 mph - N/A   Clear
11:35 AM 50.0 °F - 26.6 °F 40% 30.25 in 10.0 mi NW 8.1 mph - N/A   Clear
11:55 AM 50.0 °F - 26.6 °F 40% 30.24 in 10.0 mi West 4.6 mph - N/A   Clear
12:15 PM 50.0 °F - 26.6 °F 40% 30.24 in 10.0 mi WNW 5.8 mph - N/A   Clear
12:35 PM 51.8 °F - 23.0 °F 33% 30.24 in 10.0 mi SSE 3.5 mph - N/A   Clear
12:55 PM 51.8 °F - 24.8 °F 35% 30.24 in 10.0 mi WSW 6.9 mph - N/A   Clear
1:15 PM 51.8 °F - 23.0 °F 33% 30.24 in 10.0 mi Calm Calm - N/A   Clear
1:35 PM 53.6 °F - 23.0 °F 30% 30.24 in 10.0 mi West 6.9 mph - N/A   Clear
1:55 PM 53.6 °F - 24.8 °F 33% 30.24 in 10.0 mi WSW 8.1 mph - N/A   Clear
2:15 PM 53.6 °F - 19.4 °F 26% 30.24 in 10.0 mi SW 3.5 mph - N/A   Clear
2:35 PM 55.4 °F - 23.0 °F 29% 30.24 in 10.0 mi West 9.2 mph - N/A   Clear
2:55 PM 55.4 °F - 21.2 °F 26% 30.23 in 10.0 mi West 8.1 mph 16.1 mph N/A   Clear
3:15 PM 55.4 °F - 21.2 °F 26% 30.23 in 10.0 mi WNW 5.8 mph - N/A   Clear
3:35 PM 55.4 °F - 23.0 °F 29% 30.23 in 10.0 mi Calm Calm - N/A   Clear
3:55 PM 57.2 °F - 26.6 °F 31% 30.22 in 10.0 mi West 8.1 mph - N/A   Clear
4:15 PM 55.4 °F - 26.6 °F 33% 30.22 in 10.0 mi NW 6.9 mph - N/A   Clear
4:35 PM 55.4 °F - 26.6 °F 33% 30.22 in 10.0 mi West 4.6 mph - N/A   Clear
4:55 PM 57.2 °F - 26.6 °F 31% 30.22 in 10.0 mi Calm Calm - N/A   Clear
5:15 PM 55.4 °F - 26.6 °F 33% 30.22 in 10.0 mi WNW 5.8 mph - N/A   Clear
5:35 PM 53.6 °F - 28.4 °F 38% 30.22 in 10.0 mi WNW 3.5 mph - N/A   Clear
5:55 PM 53.6 °F - 26.6 °F 35% 30.22 in 10.0 mi Calm Calm - N/A   Clear
6:15 PM 55.4 °F - 28.4 °F 36% 30.21 in 10.0 mi SW 3.5 mph - N/A   Clear
6:35 PM 53.6 °F - 26.6 °F 35% 30.21 in 10.0 mi West 3.5 mph - N/A   Clear
6:55 PM 53.6 °F - 30.2 °F 41% 30.22 in 10.0 mi Calm Calm - N/A   Clear
7:15 PM 51.8 °F - 32.0 °F 47% 30.22 in 10.0 mi NW 3.5 mph - N/A   Clear
7:35 PM 46.4 °F 45.2 °F 33.8 °F 62% 30.22 in 10.0 mi West 3.5 mph - N/A   Clear
7:55 PM 44.6 °F 42.2 °F 33.8 °F 66% 30.23 in 10.0 mi WNW 4.6 mph - N/A   Clear
8:15 PM 42.8 °F 39.3 °F 33.8 °F 70% 30.24 in 10.0 mi West 5.8 mph - N/A   Clear
8:35 PM 41.0 °F 36.4 °F 33.8 °F 76% 30.24 in 10.0 mi West 6.9 mph - N/A   Clear
8:55 PM 41.0 °F 37.1 °F 33.8 °F 76% 30.24 in 10.0 mi WNW 5.8 mph - N/A   Clear
9:15 PM 41.0 °F 38.0 °F 32.0 °F 70% 30.25 in 10.0 mi WNW 4.6 mph - N/A   Clear
9:35 PM 39.2 °F 35.0 °F 32.0 °F 75% 30.25 in 10.0 mi WNW 5.8 mph - N/A   Clear
9:55 PM 37.4 °F 34.9 °F 32.0 °F 81% 30.26 in 10.0 mi NW 3.5 mph - N/A   Clear
10:15 PM 37.4 °F 34.9 °F 32.0 °F 81% 30.26 in 10.0 mi NNW 3.5 mph - N/A   Clear
10:35 PM 39.2 °F 33.0 °F 32.0 °F 75% 30.26 in 10.0 mi NW 9.2 mph - N/A   Clear
10:55 PM 35.6 °F 29.9 °F 30.2 °F 81% 30.27 in 10.0 mi NNW 6.9 mph - N/A   Clear
11:15 PM 35.6 °F 32.8 °F 32.0 °F 87% 30.27 in 10.0 mi WNW 3.5 mph - N/A   Clear
11:35 PM 33.8 °F 29.6 °F 30.2 °F 87% 30.27 in 10.0 mi West 4.6 mph - N/A   Clear
11:55 PM 33.8 °F 27.7 °F 32.0 °F 93% 30.27 in 10.0 mi West 6.9 mph - N/A   Clear